GW0208 Weather Reports


time (UTC)temp
F
wind
direction
speed
knots
gust
knots
rain 1hr
in
rain 24hr
in
rain mn
in
humidity
%
barometer
mb
20260506011003 42 0 0.0 0.0 0.00 0.00 0.00 90 1012.3
20260506010505 42 0 0.0 0.0 0.00 0.00 0.00 90 1012.3
20260506010220 42 0 0.0 0.0 0.00 0.00 0.00 90 1012.3
20260506005505 42 0 0.0 0.0 0.00 0.00 0.00 89 1012.3
20260506005005 42 14 0.0 1.7 0.00 0.00 0.00 89 1012.3
20260506004505 42 39 0.0 1.7 0.00 0.00 0.00 89 1012.3
20260506004005 42 36 0.0 1.7 0.00 0.00 0.00 88 1012.0
20260506003505 43 50 0.0 1.7 0.00 0.00 0.00 88 1012.5
20260506003003 43 42 0.9 3.5 0.00 0.00 0.00 88 1012.2
20260506002503 43 38 0.9 3.5 0.00 0.00 0.00 88 1012.4
20260506002005 43 35 1.7 6.1 0.00 0.00 0.00 89 1012.4
20260506001505 43 32 1.7 6.1 0.00 0.00 0.00 89 1012.3
20260506001005 43 28 0.9 6.1 0.00 0.00 0.00 89 1012.2
20260506000718 43 30 0.9 6.1 0.00 0.00 0.00 89 1012.4
20260506000005 43 31 0.0 6.1 0.00 0.00 0.00 89 1012.5
20260505235505 43 35 0.9 3.5 0.00 0.00 0.00 89 1012.5
20260505235005 43 36 1.7 3.5 0.00 0.00 0.00 90 1012.4
20260505234505 43 51 0.9 3.5 0.00 0.00 0.00 90 1012.3
20260505234005 43 66 0.0 3.5 0.00 0.00 0.00 90 1012.6
20260505233505 43 48 0.9 3.5 0.00 0.00 0.00 90 1012.5
20260505233217 43 55 0.9 6.1 0.00 0.00 0.00 90 1012.4
20260505232503 43 42 0.9 6.1 0.00 0.00 0.00 90 1012.6
20260505232005 43 23 0.0 3.5 0.00 0.00 0.00 90 1012.7
20260505231503 43 0 0.0 0.0 0.00 0.00 0.00 90 1012.6
20260505231005 43 0 0.0 0.0 0.00 0.00 0.00 90 1012.7
20260505230505 43 83 0.0 1.7 0.00 0.00 0.00 90 1012.6
20260505230004 44 67 0.0 3.5 0.00 0.00 0.00 90 1012.5
20260505225504 43 63 0.9 3.5 0.00 0.00 0.00 91 1012.5
20260505225219 43 64 0.0 3.5 0.00 0.00 0.00 91 1012.7
20260505224505 43 55 0.0 3.5 0.00 0.00 0.00 91 1012.6
20260505224003 43 38 0.9 3.5 0.00 0.00 0.00 91 1012.7
20260505223505 43 43 0.9 3.5 0.00 0.00 0.00 91 1012.6
20260505223005 43 46 0.0 3.5 0.00 0.00 0.00 90 1012.5
20260505222503 43 82 0.0 3.5 0.00 0.00 0.00 90 1012.9
20260505222217 43 214 0.0 3.5 0.00 0.00 0.00 90 1012.7
20260505221505 43 358 0.0 3.5 0.00 0.00 0.00 90 1012.7
20260505221005 43 13 0.0 3.5 0.00 0.00 0.00 90 1012.9
20260505220505 43 27 0.9 3.5 0.00 0.00 0.00 90 1012.7
20260505220005 44 42 0.9 3.5 0.00 0.00 0.00 90 1012.7
20260505215505 44 42 0.9 3.5 0.00 0.00 0.00 91 1012.6
20260505215003 43 33 0.9 3.5 0.00 0.00 0.00 91 1012.9
20260505214505 43 56 0.0 1.7 0.00 0.00 0.00 90 1012.9
20260505214005 43 73 0.0 3.5 0.00 0.00 0.00 90 1013.0
20260505213505 44 61 0.9 3.5 0.00 0.00 0.00 90 1013.0
20260505213005 44 51 1.7 3.5 0.00 0.00 0.00 90 1013.0
20260505212503 45 59 0.9 3.5 0.00 0.00 0.00 89 1013.0
20260505212005 45 63 0.9 3.5 0.00 0.00 0.00 89 1012.9
20260505211503 45 47 1.7 3.5 0.00 0.00 0.00 89 1013.1
20260505211005 45 37 1.7 3.5 0.00 0.00 0.00 89 1013.0
20260505210505 45 70 0.9 3.5 0.00 0.00 0.00 88 1012.8
20260505210003 45 73 0.9 3.5 0.00 0.00 0.00 88 1012.9
20260505205505 45 54 1.7 3.5 0.00 0.00 0.00 88 1012.9
20260505205003 46 55 0.9 3.5 0.00 0.00 0.00 87 1013.0
20260505204503 46 71 0.0 1.7 0.00 0.00 0.00 87 1013.1
20260505204006 46 47 0.9 1.7 0.00 0.00 0.00 87 1012.8
20260505203505 46 36 0.9 3.5 0.00 0.00 0.00 86 1012.9
20260505203005 46 45 0.9 3.5 0.00 0.00 0.00 86 1013.0
20260505202503 46 45 0.9 3.5 0.00 0.00 0.00 86 1013.0
20260505202005 47 37 1.7 6.1 0.00 0.00 0.00 85 1012.9
20260505201505 47 27 1.7 6.1 0.00 0.00 0.00 85 1012.9
20260505201005 47 31 1.7 3.5 0.00 0.00 0.00 85 1012.6
20260505200505 47 40 0.9 6.1 0.00 0.00 0.00 84 1012.9
20260505200003 48 46 1.7 7.8 0.00 0.00 0.00 84 1012.8
20260505195503 48 32 2.6 7.8 0.00 0.00 0.00 83 1012.9
20260505195005 48 27 3.5 10.4 0.00 0.00 0.00 83 1012.7
20260505194505 49 19 4.3 10.4 0.00 0.00 0.00 82 1012.7
20260505194003 49 19 4.3 10.4 0.00 0.00 0.00 81 1012.6
20260505193506 49 21 3.5 7.8 0.00 0.00 0.00 81 1012.8
20260505193005 49 27 3.5 12.2 0.00 0.01 0.00 81 1012.7
20260505192505 49 29 3.5 12.2 0.00 0.01 0.00 81 1012.8
20260505192220 50 26 3.5 10.4 0.00 0.01 0.00 81 1012.5
20260505191505 50 19 4.3 10.4 0.00 0.02 0.00 81 1012.7
20260505191005 51 11 4.3 12.2 0.00 0.02 0.00 81 1012.7
20260505190505 51 15 5.2 13.9 0.00 0.02 0.00 80 1012.7
20260505190008 51 7 5.2 13.9 0.00 0.02 0.00 80 1012.6
20260505185505 51 352 4.3 10.4 0.00 0.02 0.00 80 1012.7
20260505185220 51 356 4.3 10.4 0.00 0.02 0.00 80 1012.4
20260505184718 51 1 3.5 13.9 0.00 0.02 0.00 81 1012.5
20260505184005 51 38 3.5 13.9 0.00 0.02 0.00 81 1012.6
20260505183505 51 10 4.3 15.6 0.00 0.02 0.00 81 1012.5
20260505183005 52 349 5.2 15.6 0.00 0.02 0.00 81 1012.5
20260505182503 52 22 6.1 15.6 0.00 0.02 0.00 81 1012.2
20260505182003 52 29 6.1 20.0 0.00 0.02 0.00 81 1012.5
20260505181503 52 7 6.1 20.0 0.00 0.02 0.00 80 1012.3
20260505181217 52 8 6.1 15.6 0.00 0.02 0.00 80 1012.5
20260505180505 53 22 7.0 23.5 0.00 0.02 0.00 80 1012.4
20260505180005 53 359 7.0 23.5 0.00 0.02 0.00 79 1012.5
20260505175503 54 12 7.0 20.0 0.00 0.02 0.00 79 1012.6
20260505175003 54 5 6.1 15.6 0.00 0.02 0.00 78 1012.7
20260505174505 54 355 6.1 15.6 0.00 0.02 0.00 78 1012.6
20260505174005 54 360 7.0 15.6 0.00 0.02 0.00 78 1012.6
20260505173503 54 3 6.1 13.9 0.00 0.02 0.00 77 1012.6
20260505173006 54 3 6.1 18.2 0.00 0.02 0.00 76 1012.6
20260505172505 54 348 7.8 20.0 0.00 0.02 0.00 76 1012.5
20260505172003 54 4 8.7 20.0 0.00 0.02 0.00 75 1012.5
20260505171720 53 14 8.7 20.0 0.00 0.02 0.00 74 1012.4
20260505171005 54 20 6.1 20.0 0.00 0.02 0.00 72 1012.7
20260505170503 54 13 6.1 20.0 0.00 0.02 0.00 70 1012.6
20260505170003 54 6 5.2 18.2 0.00 0.02 0.00 71 1012.5
20260505165505 55 8 5.2 15.6 0.00 0.02 0.00 72 1012.3
20260505165005 55 23 5.2 15.6 0.00 0.02 0.00 73 1012.6
20260505164503 56 43 6.1 13.9 0.00 0.02 0.00 72 1012.4
20260505164005 56 36 5.2 18.2 0.00 0.02 0.00 71 1012.6
20260505163503 55 36 5.2 18.2 0.00 0.02 0.00 71 1012.5
20260505163005 56 45 6.1 18.2 0.00 0.02 0.00 70 1012.6
20260505162505 55 33 6.1 18.2 0.00 0.02 0.00 69 1012.6
20260505162005 55 23 4.3 13.9 0.00 0.02 0.00 72 1012.9
20260505161505 55 23 6.1 15.6 0.00 0.02 0.00 70 1012.6
20260505161003 55 31 7.8 15.6 0.00 0.02 0.00 70 1012.7
20260505160504 55 34 7.0 15.6 0.00 0.02 0.00 69 1012.6
20260505153005 55 23 7.8 15.6 0.00 0.09 0.00 74 1012.8
20260505152504 55 13 6.1 15.6 0.00 0.09 0.00 75 1012.8
20260505152005 55 18 6.1 20.0 0.00 0.10 0.00 77 1012.6
20260505151503 55 22 6.1 20.0 0.00 0.11 0.00 75 1012.7
20260505151005 56 27 5.2 13.9 0.00 0.11 0.00 71 1012.8
20260505150503 56 23 6.1 13.9 0.00 0.11 0.00 72 1013.0
20260505140505 56 21 6.1 21.7 0.00 0.14 0.00 71 1013.0
20260505130219 57 2 7.8 18.2 0.00 0.14 0.00 72 1013.0
20260505125003 56 10 8.7 21.7 0.00 0.15 0.00 71 1012.7
20260505124506 56 9 7.8 15.6 0.00 0.16 0.00 71 1012.9
20260505124005 58 11 7.0 18.2 0.00 0.17 0.00 71 1012.8
20260505123503 58 10 7.8 18.2 0.00 0.18 0.00 68 1012.8
20260505123003 57 3 7.0 20.0 0.00 0.19 0.00 66 1012.6
20260505122503 56 24 7.0 21.7 0.00 0.19 0.00 69 1012.6
20260505122221 57 40 7.8 21.7 0.00 0.19 0.00 69 1012.6
20260505121505 57 42 7.0 20.0 0.00 0.20 0.00 70 1012.4
20260505121005 57 35 7.8 20.0 0.00 0.20 0.00 68 1012.7
20260505120505 57 18 7.8 18.2 0.00 0.20 0.00 70 1012.7
20260505120005 57 13 7.0 18.2 0.00 0.20 0.00 67 1012.8
20260505115505 56 20 6.1 15.6 0.00 0.20 0.00 69 1012.7
20260505115219 56 36 6.1 15.6 0.00 0.20 0.00 69 1012.9
20260505114503 57 18 8.7 21.7 0.00 0.20 0.00 73 1012.7
20260505114005 57 14 8.7 21.7 0.00 0.20 0.00 70 1012.9
20260505113720 57 15 7.8 21.7 0.00 0.20 0.00 71 1012.7
20260505113217 56 13 8.7 15.6 0.00 0.20 0.00 71 1012.8
20260505112720 56 11 7.0 18.2 0.00 0.20 0.00 74 1012.8
20260505112003 57 12 7.0 18.2 0.00 0.24 0.00 71 1012.9
20260505111503 57 27 7.0 20.0 0.00 0.26 0.00 70 1013.1
20260505111003 57 38 6.1 20.0 0.00 0.26 0.00 69 1012.7
20260505110505 57 30 5.2 20.0 0.00 0.26 0.00 70 1012.6
20260505110218 58 7 6.1 20.0 0.00 0.26 0.00 67 1012.7
20260505102005 57 5 6.1 15.6 0.00 0.26 0.00 69 1013.0
20260505101505 56 21 6.1 15.6 0.00 0.26 0.00 70 1013.0
20260505101003 57 10 6.1 15.6 0.00 0.26 0.00 68 1013.3
20260505100503 56 5 6.1 15.6 0.00 0.26 0.00 69 1013.0
20260505100003 55 18 5.2 12.2 0.00 0.26 0.00 70 1012.9
20260505095505 55 31 4.3 12.2 0.00 0.26 0.00 70 1013.2
20260505095003 56 28 4.3 13.9 0.00 0.26 0.00 69 1013.0
20260505094505 56 28 6.1 13.9 0.00 0.26 0.00 68 1013.0
20260505094005 56 28 5.2 15.6 0.00 0.26 0.00 69 1013.0
20260505093505 56 23 5.2 15.6 0.00 0.26 0.00 69 1013.1
20260505093003 57 12 6.1 13.9 0.00 0.26 0.00 69 1012.8
20260505092503 56 6 6.1 13.9 0.00 0.26 0.00 69 1013.1
20260505092003 56 6 6.1 18.2 0.00 0.26 0.00 69 1013.2
20260505091505 56 14 7.0 18.2 0.00 0.26 0.00 68 1013.3
20260505091005 56 34 7.0 13.9 0.00 0.26 0.00 69 1013.0
20260505090503 56 32 7.8 13.9 0.00 0.26 0.00 71 1013.1
20260505090005 56 18 7.8 13.9 0.00 0.26 0.00 70 1013.3
20260505085505 56 22 7.0 13.9 0.00 0.26 0.00 71 1013.1
20260505085010 55 13 7.0 15.6 0.00 0.26 0.00 72 1013.1
20260505084717 55 7 7.0 15.6 0.00 0.26 0.00 72 1013.1
20260505084003 55 23 6.1 15.6 0.00 0.26 0.00 74 1013.3
20260505083503 55 26 6.1 15.6 0.00 0.26 0.00 74 1013.1
20260505083006 55 16 7.0 15.6 0.00 0.26 0.00 73 1013.2
20260505082718 55 6 7.0 15.6 0.00 0.26 0.00 74 1013.1
20260505082003 55 11 4.3 13.9 0.00 0.26 0.00 75 1013.3
20260505081503 55 13 4.3 13.9 0.00 0.26 0.00 75 1012.9
20260505081219 55 15 4.3 13.9 0.00 0.26 0.00 76 1013.1
20260505080505 55 33 3.5 12.2 0.00 0.26 0.00 77 1013.3
20260505080008 54 36 3.5 12.2 0.00 0.26 0.00 79 1013.2
20260505075505 54 42 3.5 10.4 0.00 0.26 0.00 81 1013.1
20260505075005 53 33 4.3 12.2 0.00 0.26 0.00 83 1013.2
20260505074718 53 28 3.5 13.9 0.00 0.26 0.00 84 1013.2
20260505074219 52 22 3.5 13.9 0.00 0.26 0.00 85 1013.2
20260505073718 52 30 2.6 12.2 0.00 0.26 0.00 88 1013.4
20260505073217 52 41 1.7 10.4 0.00 0.26 0.00 90 1013.3
20260505072503 52 54 0.9 7.8 0.00 0.26 0.00 92 1013.3
20260505072005 51 24 0.9 7.8 0.00 0.26 0.00 92 1013.2
20260505071505 50 9 0.9 6.1 0.00 0.26 0.00 92 1013.1
20260505071003 50 23 0.9 6.1 0.00 0.26 0.00 92 1013.2
20260505070505 50 47 1.7 7.8 0.00 0.26 0.00 92 1013.2
20260505070005 51 38 2.6 10.4 0.00 0.26 0.00 92 1013.1
20260505065503 50 15 2.6 10.4 0.00 0.27 0.00 92 1013.4
20260505065005 50 11 1.7 12.2 0.00 0.28 0.00 92 1013.2
20260505064503 50 7 0.9 12.2 0.00 0.29 0.00 92 1013.3
20260505064219 50 28 1.7 12.2 0.00 0.30 0.00 92 1013.3
20260505063503 50 8 2.6 10.4 0.00 0.32 0.00 92 1013.0
20260505063005 50 3 1.7 10.4 0.00 0.32 0.00 93 1013.2
20260505062505 50 34 2.6 10.4 0.00 0.34 0.00 93 1013.1
20260505062003 50 41 3.5 10.4 0.00 0.35 0.00 93 1013.4
20260505061505 50 29 3.5 10.4 0.00 0.37 0.00 93 1013.2
20260505061003 50 28 3.5 10.4 0.00 0.39 0.00 94 1013.1
20260505060504 50 31 3.5 10.4 0.00 0.41 0.00 94 1013.3
20260505060005 50 37 2.6 10.4 0.00 0.44 0.00 94 1013.2
20260505055720 50 38 2.6 10.4 0.00 0.44 0.00 94 1013.1
20260505055003 50 36 2.6 10.4 0.00 0.45 0.00 94 1013.2
20260505054718 50 36 3.5 12.2 0.00 0.45 0.00 94 1013.1
20260505054003 50 34 2.6 12.2 0.00 0.45 0.00 94 1013.0
20260505053503 50 12 3.5 13.9 0.00 0.45 0.00 95 1013.0
20260505053004 50 5 3.5 13.9 0.00 0.45 0.00 95 1013.2
20260505052505 50 4 2.6 10.4 0.00 0.45 0.00 95 1012.9
20260505052004 49 21 1.7 10.4 0.00 0.45 0.00 95 1013.1
20260505051505 49 19 1.7 12.2 0.00 0.45 0.00 94 1013.1
20260505051003 49 14 1.7 12.2 0.00 0.45 0.00 94 1012.9
20260505050505 49 36 1.7 10.4 0.00 0.45 0.00 94 1013.0
20260505041505 50 27 0.9 6.1 0.00 0.46 0.00 93 1012.9
20260505041003 51 25 1.7 6.1 0.00 0.46 0.00 93 1012.8
20260505040503 51 41 1.7 6.1 0.00 0.46 0.00 92 1012.7
20260505040005 51 34 0.9 7.8 0.00 0.46 0.00 92 1012.8
20260505035505 51 30 0.9 7.8 0.00 0.46 0.00 92 1012.9
20260505035222 51 28 0.9 7.8 0.00 0.46 0.00 92 1012.7
20260505034719 51 22 0.0 6.1 0.00 0.46 0.00 92 1012.9
20260505034005 51 37 0.0 3.5 0.00 0.46 0.00 91 1012.8
20260505033503 51 40 0.9 3.5 0.00 0.46 0.00 91 1012.6
20260505033217 51 35 0.9 3.5 0.00 0.46 0.00 91 1012.6
20260505032503 51 30 0.9 7.8 0.00 0.46 0.00 91 1012.8
20260505032007 51 24 0.9 7.8 0.00 0.46 0.00 92 1012.7
20260505031505 51 27 0.0 6.1 0.00 0.46 0.00 92 1012.7
20260505031003 51 29 0.0 1.7 0.00 0.46 0.00 92 1012.5
20260505030505 51 0 0.0 0.0 0.00 0.46 0.00 92 1012.8
20260505030005 51 38 0.0 1.7 0.00 0.46 0.00 92 1012.5
20260505025505 52 43 0.0 3.5 0.00 0.46 0.00 92 1012.6
20260505025005 52 50 0.9 6.1 0.00 0.46 0.00 92 1012.6
20260505024503 52 48 0.9 6.1 0.00 0.46 0.00 92 1012.5
20260505024003 52 55 1.7 6.1 0.00 0.46 0.00 92 1012.6
20260505023505 52 65 0.9 6.1 0.00 0.46 0.00 93 1012.7
20260505023003 51 70 0.0 6.1 0.00 0.46 0.00 93 1012.8
20260505022718 51 52 0.0 3.5 0.00 0.46 0.00 93 1012.6
20260505022003 51 45 0.9 6.1 0.00 0.46 0.00 93 1012.8
20260505021505 51 24 0.9 6.1 0.00 0.46 0.00 93 1012.7
20260505021219 51 11 0.9 6.1 0.00 0.46 0.00 93 1012.4
20260505020506 51 38 0.0 1.7 0.00 0.46 0.00 93 1012.7
20260505020217 51 38 0.0 1.7 0.00 0.46 0.00 93 1012.3
20260505015505 51 45 0.0 1.7 0.00 0.46 0.00 93 1012.6
20260505015005 51 40 0.0 3.5 0.00 0.46 0.00 93 1012.6
20260505014505 51 30 0.9 3.5 0.00 0.46 0.00 93 1012.6
20260505014003 51 35 0.9 3.5 0.00 0.46 0.00 93 1012.8
20260505013503 51 50 0.9 6.1 0.00 0.46 0.00 93 1012.8
20260505013005 51 39 1.7 6.1 0.00 0.46 0.00 93 1012.8
20260505012503 51 33 1.7 6.1 0.00 0.46 0.00 93 1012.7
20260505012221 51 32 0.9 6.1 0.00 0.46 0.00 93 1012.8
20260505011720 50 0 0.0 0.0 0.00 0.46 0.00 93 1012.9